Flag for Puerto Rico Weather past 2 weeks in Caguas, Puerto Rico

Now
81 °F

Scattered clouds.


Feels Like: 83 °F
Forecast: N/A
Wind: 12 mph from East

Location: Luis Munoz Marin

Current Time: Dec 21, 2014 at 6:20:11 PM

Latest Report: Dec 21, 2014 at 4:56 PM


Visibility: 10 mi

Pressure: 30.02 "Hg

Humidity: 62%

Dew point: 67 °F

Location of CaguasLocation

Historic Weather in Caguas — Graph

°F

Caguas temperature yesterday

Maximum temperature yesterday: 85 °F (at 12:56 PM)
Minimum temperature yesterday: 73 °F (at 6:56 AM)
Average temperature yesterday: 79 °F

Past Weeks' High & Low Weather Summary

 TemperatureHumidityPressure
High88 °F (Dec 14, 11:56 AM)100% (Dec 15, 5:56 AM)30.10 "Hg (Dec 15, 5:56 AM)
Low71 °F (Dec 8, 5:56 AM)55% (Dec 8, 10:56 AM)29.84 "Hg (Dec 14, 2:56 PM)
Average79 °F78%29.97 "Hg
* Reported Dec 6 4:56 PM — Dec 21 4:56 PM, Caguas, Weather by CustomWeather, © 2014

Note: Actual official high and low records may vary slightly from our data, if they occured in-between our weather recording intervals... More about our weather records

Advertising

Caguas weather history for previous 24 hours

 ConditionsComfort  
Time TempWeatherWind HumidityBarometerVisibility
4:56 PM
Dec 21
81 °FScattered clouds.12 mph62%30.02 "Hg10 mi
3:56 PM81 °FScattered clouds.15 mph62%30.02 "Hg10 mi
2:56 PM83 °FScattered clouds.16 mph61%30.02 "Hg10 mi
1:56 PM83 °FScattered clouds.17 mph61%30.04 "Hg10 mi
12:56 PM84 °FScattered clouds.16 mph59%30.06 "Hg10 mi
11:56 AM83 °FScattered clouds.17 mph63%30.09 "Hg10 mi
10:56 AM83 °FScattered clouds.13 mph63%30.10 "Hg10 mi
9:56 AM83 °FScattered clouds.17 mph63%30.10 "Hg10 mi
8:56 AM80 °FScattered clouds.7 mph71%30.08 "Hg10 mi
7:56 AM76 °FScattered clouds.5 mph82%30.06 "Hg10 mi
6:56 AM74 °FPassing clouds.3 mph85%30.03 "Hg10 mi
5:56 AM75 °FPassing clouds.3 mph82%30.01 "Hg10 mi
4:56 AM75 °FPassing clouds.3 mph82%30.01 "Hg10 mi
3:56 AM76 °FPassing clouds.6 mph80%30.00 "Hg10 mi
2:56 AM78 °FPassing clouds.7 mph74%30.01 "Hg10 mi
1:56 AM78 °FPassing clouds.12 mph76%30.03 "Hg10 mi
12:56 AM77 °FPassing clouds.6 mph85%30.03 "Hg10 mi
11:56 PM
Dec 20
78 °FPassing clouds.7 mph82%30.05 "Hg10 mi
10:56 PM78 °FPassing clouds.7 mph82%30.05 "Hg10 mi
9:56 PM79 °FPassing clouds.No wind79%30.05 "Hg10 mi
8:56 PM79 °FPassing clouds.7 mph79%30.05 "Hg10 mi
7:56 PM79 °FPassing clouds.5 mph79%30.03 "Hg10 mi
6:56 PM80 °FPassing clouds.6 mph76%30.01 "Hg10 mi
Weather by CustomWeather, © 2014

See weather overviewHow to use our weather pages